Weather WX

World > North America > United States > North Dakota

Prairie Rose, North Dakota Regional Weather

Lat: 46.82N, Lon: 96.83W
Wx Zone: NDZ039
Warning FLW WEATHER ALERT - (More Info. Click Here) Warning
Feedback

Prairie Rose, ND Regional Weather

Expires:201907181400;;251572
ASUS43 KBIS 181310
RWRND 

NORTH DAKOTA REGIONAL WEATHER ROUNDUP
NATIONAL WEATHER SERVICE BISMARCK ND
800 AM CDT THU JUL 18 2019

NOTE: "FAIR" INDICATES FEW OR NO CLOUDS BELOW 12,000 FEET WITH NO
SIGNIFICANT WEATHER AND/OR OBSTRUCTIONS TO VISIBILITY.



NDZ022-023-025-028>030-036>039-047>053-181400-
SOUTHEAST NORTH DAKOTA
  
CITY           SKY/WX    TMP DP  RH WIND       PRES   REMARKS
FARGO          PTSUNNY   68  63  84 S5        29.65R                  
JAMESTOWN      SUNNY     65  62  90 SW5       29.65F                  
$$ 

  

SKY/WX - Weather  TMP - Temperature  DP - Dew Point  RH - Relative Humidity
WIND - Wind Direction/Speed PRES - Barometric Pressure VSB - Visibility
WCI - Wind Chill Index E13G22 Wind - East Wind 13 mph/Gusts of 22 mph